Weather History for Davenport, IA

Change the Weather History Date:

Tuesday, January 29, 2013

  Actual Average Record
Temperature  
Mean Temperature 48 °F 22 °F  
Max Temperature 61 °F 30 °F 61 °F (2013)
Min Temperature 35 °F 14 °F -20 °F (1966)
Degree Days  
Heating Degree Days 17 43  
Month to date heating degree days 1158 1271  
Since 1 July heating degree days 3600 3851  
Cooling Degree Days 0 0  
Month to date cooling degree days 0 0  
Year to date cooling degree days 0 0  
Moisture  
Dew Point 46 °F    
Average Humidity 92    
Maximum Humidity 100    
Minimum Humidity 84    
Precipitation  
Precipitation 0.74 in 0.07 in 0.94 in (2001)
Month to date precipitation 1.55 1.05  
Year to date precipitation 1.55 1.05  
Snow  
Snow 0.00 in - - ()
Month to date snowfall 1.0  
Since 1 July snowfall 6.6  
Snow Depth 0.00 in    
Sea Level Pressure  
Sea Level Pressure 29.56 in    
Wind  
Wind Speed 13 mph (WNW)    
Max Wind Speed 24 mph    
Max Gust Speed 36 mph    
Visibility 4 miles    
Events Rain , Thunderstorm    
T = Trace of Precipitation, MM = Missing Value Source: NWS Daily Summary

Daily Weather History Graph

Daily Weather History Graph

Search for Another Location

Airport:

Trip Planner

Search our weather history database for the weather conditions in past years. The results will help you decide how hot, cold, wet, or windy it might be!

Date:

Astronomy

Jan. 29, 2013 Rise Set
Actual Time 7:16 AM CST 5:14 PM CST
Civil Twilight 6:47 AM CST 5:44 PM CST
Nautical Twilight 6:13 AM CST 6:17 PM CST
Astronomical Twilight 5:41 AM CST 6:50 PM CST
Moon 8:14 PM CST (1/29) 8:11 AM CST (1/29)
Length of Visible Light 10h 56m
Length of Day
9h 57m
Waning Gibbous, 93% of the Moon is Illuminated
Jan 29
Waning Gibbous
Feb 3
Last Quarter
Feb 10
New
Feb 17
First Quarter
Feb 25
Full

Hourly Weather History & Observations

Time (CST) Temp. Windchill Dew Point Humidity Pressure Visibility Wind Dir Wind Speed Gust Speed Precip Events Conditions
12:02 AM 48.2 °F - 48.2 °F 100% 29.68 in 1.0 mi South 11.5 mph - N/A   Mostly Cloudy
12:06 AM 50.0 °F - 50.0 °F 100% 29.68 in 2.0 mi South 12.7 mph - N/A   Mostly Cloudy
12:17 AM 51.8 °F - 51.8 °F 100% 29.68 in 4.0 mi South 16.1 mph 21.9 mph N/A   Scattered Clouds
12:52 AM 55.9 °F - 54.0 °F 93% 29.67 in 9.0 mi South 20.7 mph 28.8 mph N/A   Partly Cloudy
1:52 AM 57.9 °F - 54.0 °F 87% 29.65 in 9.0 mi South 18.4 mph 31.1 mph N/A   Scattered Clouds
2:52 AM 57.9 °F - 54.0 °F 87% 29.64 in 9.0 mi South 19.6 mph 26.5 mph N/A   Clear
3:52 AM 57.0 °F - 54.0 °F 89% 29.62 in 8.0 mi South 18.4 mph 25.3 mph N/A   Clear
4:52 AM 57.0 °F - 54.0 °F 89% 29.60 in 8.0 mi South 16.1 mph 24.2 mph N/A   Scattered Clouds
5:33 AM 57.2 °F - 53.6 °F 88% 29.61 in 6.0 mi SSW 18.4 mph 25.3 mph 0.01 in Rain , Thunderstorm Light Rain
5:52 AM 55.9 °F - 54.0 °F 93% 29.64 in 6.0 mi SW 11.5 mph - 0.02 in Rain Light Rain
6:12 AM 55.4 °F - 53.6 °F 94% 29.63 in 8.0 mi SW 8.1 mph - 0.00 in   Overcast
6:20 AM 55.4 °F - 53.6 °F 94% 29.62 in 7.0 mi South 9.2 mph - 0.00 in   Overcast
6:52 AM 55.0 °F - 53.1 °F 93% 29.61 in 6.0 mi South 10.4 mph - 0.00 in   Mostly Cloudy
7:22 AM 55.4 °F - 53.6 °F 94% 29.60 in 5.0 mi South 11.5 mph - N/A   Scattered Clouds
7:52 AM 57.0 °F - 55.0 °F 93% 29.60 in 4.0 mi South 12.7 mph - N/A   Clear
8:29 AM 57.2 °F - 55.4 °F 94% 29.59 in 6.0 mi South 9.2 mph - N/A Thunderstorm Mostly Cloudy
8:44 AM 57.2 °F - 55.4 °F 94% 29.58 in 6.0 mi South 12.7 mph - N/A   Mostly Cloudy
8:52 AM 57.9 °F - 55.0 °F 90% 29.58 in 6.0 mi South 11.5 mph - N/A   Mostly Cloudy
9:52 AM 60.1 °F - 55.9 °F 86% 29.58 in 7.0 mi SSW 16.1 mph 24.2 mph N/A   Scattered Clouds
10:05 AM 60.8 °F - 55.4 °F 82% 29.59 in 8.0 mi SSW 13.8 mph - N/A   Mostly Cloudy
10:52 AM 61.0 °F - 55.9 °F 83% 29.59 in 8.0 mi SSW 16.1 mph 23.0 mph N/A   Mostly Cloudy
11:11 AM 60.8 °F - 55.4 °F 82% 29.58 in 7.0 mi SSW 12.7 mph - N/A   Mostly Cloudy
11:52 AM 60.1 °F - 57.0 °F 90% 29.57 in 6.0 mi SSW 12.7 mph 20.7 mph 0.00 in   Overcast
12:40 PM 59.0 °F - 55.4 °F 88% 29.59 in 3.0 mi SW 17.3 mph 25.3 mph 0.06 in Rain Light Rain
12:46 PM 55.4 °F - 55.4 °F 100% 29.59 in 2.5 mi West 13.8 mph - 0.08 in Rain Rain
12:52 PM 53.1 °F - 51.1 °F 93% 29.58 in 1.8 mi WNW 15.0 mph - 0.09 in Rain Rain
12:58 PM 51.8 °F - 50.0 °F 94% 29.57 in 1.5 mi NW 13.8 mph - 0.01 in Rain Rain
1:09 PM 50.0 °F - 48.2 °F 94% 29.57 in 2.0 mi NW 13.8 mph - 0.04 in Rain Rain
1:18 PM 48.2 °F - 48.2 °F 100% 29.55 in 2.5 mi NW 10.4 mph - 0.05 in Rain Light Rain
1:31 PM 48.2 °F - 48.2 °F 100% 29.56 in 1.8 mi NW 9.2 mph - 0.08 in Rain Light Rain
1:38 PM 48.2 °F - 48.2 °F 100% 29.53 in 1.8 mi NNW 9.2 mph - 0.09 in Rain Light Rain
1:45 PM 48.2 °F - 48.2 °F 100% 29.53 in 1.5 mi NW 12.7 mph - 0.10 in Rain Rain
1:52 PM 48.9 °F - 46.9 °F 93% 29.55 in 1.8 mi WNW 11.5 mph - 0.11 in Rain Light Rain
1:56 PM 48.2 °F - 46.4 °F 93% 29.54 in 1.8 mi WNW 12.7 mph - 0.00 in Rain Light Rain
2:25 PM 46.4 °F 42.4 °F 46.4 °F 100% 29.53 in 1.5 mi NW 8.1 mph - 0.06 in Rain Rain
2:39 PM 46.4 °F 43.5 °F 44.6 °F 93% 29.53 in 1.8 mi NW 5.8 mph - 0.08 in Rain Light Rain
2:52 PM 46.0 °F 43.1 °F 44.1 °F 93% 29.54 in 2.0 mi NW 5.8 mph - 0.10 in Rain Rain
3:03 PM 46.4 °F 42.4 °F 44.6 °F 93% 29.53 in 1.8 mi NW 8.1 mph - 0.03 in Rain Rain
3:30 PM 44.6 °F 40.2 °F 42.8 °F 93% 29.51 in 2.0 mi NNW 8.1 mph - 0.08 in Rain Light Rain
3:44 PM 44.6 °F 39.2 °F 42.8 °F 93% 29.51 in 2.0 mi NNW 10.4 mph - 0.09 in Rain Light Rain
3:52 PM 44.1 °F 39.0 °F 43.0 °F 96% 29.52 in 2.0 mi NNW 9.2 mph - 0.10 in Rain Light Rain
4:01 PM 44.6 °F 39.7 °F 42.8 °F 93% 29.50 in 2.0 mi NNW 9.2 mph - 0.01 in Rain Light Rain
4:37 PM 42.8 °F 37.5 °F 41.0 °F 93% 29.50 in 3.0 mi North 9.2 mph - 0.03 in Rain Light Rain
4:44 PM 42.8 °F 38.0 °F 39.2 °F 87% 29.50 in 3.0 mi NNW 8.1 mph - 0.04 in Rain Light Rain
4:52 PM 42.1 °F 36.1 °F 39.9 °F 92% 29.52 in 3.0 mi NNW 10.4 mph - 0.05 in Rain Light Rain
5:31 PM 41.0 °F 38.0 °F 39.2 °F 93% 29.51 in 3.0 mi NNE 4.6 mph - 0.05 in Rain Light Rain
5:38 PM 41.0 °F 39.0 °F 39.2 °F 93% 29.50 in 4.0 mi NNE 3.5 mph - 0.05 in Rain Light Rain
5:52 PM 41.0 °F 35.8 °F 39.0 °F 93% 29.52 in 3.0 mi NW 8.1 mph - 0.06 in Rain Light Rain
5:57 PM 39.2 °F 34.2 °F 39.2 °F 100% 29.52 in 3.0 mi NW 6.9 mph - 0.00 in Rain Light Rain
6:40 PM 39.2 °F 35.0 °F 37.4 °F 93% 29.51 in 3.0 mi NW 5.8 mph - 0.02 in Rain Light Rain
6:52 PM 39.0 °F 34.0 °F 37.9 °F 96% 29.52 in 4.0 mi NW 6.9 mph - 0.02 in Rain Light Rain
7:52 PM 39.0 °F 32.3 °F 37.0 °F 93% 29.53 in 3.0 mi NW 10.4 mph - 0.02 in Rain Light Rain
8:00 PM 37.4 °F 30.3 °F 37.4 °F 100% 29.50 in 2.5 mi NNW 10.4 mph - 0.01 in Rain Light Rain
8:37 PM 37.4 °F 30.3 °F 37.4 °F 100% 29.50 in 3.0 mi NW 10.4 mph - 0.04 in Rain Light Rain
8:52 PM 37.9 °F 30.0 °F 36.0 °F 93% 29.51 in 3.0 mi NNW 12.7 mph - 0.04 in   Overcast
9:29 PM 37.4 °F 30.3 °F 35.6 °F 93% 29.49 in 2.5 mi North 10.4 mph - 0.03 in Rain Light Rain
9:47 PM 37.4 °F 29.8 °F 35.6 °F 93% 29.47 in 3.0 mi North 11.5 mph - 0.04 in Rain Light Rain
9:52 PM 37.0 °F 29.8 °F 36.0 °F 96% 29.47 in 4.0 mi North 10.4 mph - 0.04 in Rain Light Rain
9:59 PM 37.4 °F 30.8 °F 35.6 °F 93% 29.47 in 4.0 mi North 9.2 mph - 0.00 in Rain Light Rain
10:27 PM 37.4 °F 30.3 °F 35.6 °F 93% 29.51 in 3.0 mi NW 10.4 mph - 0.02 in Rain Light Rain
10:44 PM 37.4 °F 28.9 °F 35.6 °F 93% 29.49 in 2.5 mi NNW 13.8 mph - 0.04 in Rain Light Rain
10:52 PM 36.0 °F 27.1 °F 35.1 °F 97% 29.49 in 2.5 mi NNW 13.8 mph - 0.05 in Rain Light Rain
11:03 PM 35.6 °F 26.6 °F 35.6 °F 100% 29.49 in 3.0 mi NNW 13.8 mph - 0.01 in Rain Light Rain
11:52 PM 35.1 °F 25.5 °F 34.0 °F 96% 29.48 in 4.0 mi NNW 15.0 mph - 0.04 in Rain Light Rain